Terminal Aerodrome Forecast
Issued by NWS

Home | Current Version | Previous Version | Graphics & Text | Print | Product List | Glossary On
Versions: 1 2 3 4 5 6 7 8 9 10 11 12 13 14 15 16 17 18 19 20 21 22 23 24 25 26 27 28 29 30 31 32 33
341
FTUS43 KGRB 112033 AAA
TAFRHI
TAF AMD
KRHI 112033Z 1121/1218 26007KT P6SM BKN080
     FM120400 26007KT P6SM BKN035
     FM120800 29008G15KT P6SM -SN BKN025
     FM121400 32013G23KT 4SM -SN BKN025=

USA.gov is the U.S. government's official web portal to all federal, state and local government web resources and services.